STARLINK-35737 (66219 NORAD) Tracking and Keplerian Element Data

This shows tracking and keplerian element data for the satellite.

Feedback or suggestion? Click here.




ElementValue
Catalog66219
NameSTARLINK-35737
Epoch Orbit943
Epoch Day353.98817875
Epoch Year2025
RAAN241.7662
Inclination53.1594
Eccentricity0.0001223
Argument of Perigee88.2166
Mean Anonmoly271.8979
Mean Motion15.39619163
Decay Rate0.00011716
L11 66219U 25244P 25353.98817875 .00011716 00000+0 30245-3 0 9994
L22 66219 53.1594 241.7662 0001223 88.2166 271.8979 15.39619163 9433



Live tracking and technical data element details for STARLINK-35737 (NORAD 66219). STARLINK-35737 can be tracked NOW for your location showing map with azimuth and elevation plus other details from your city location.







IsCatalogInMostPopularTable: catalog: 66219, numindb: 5
Update: records affected: 1



GetName: 66219 STARLINK-35737

Hit Count: updated at: Tue, 10 Feb 2026 02:57:02 GMT